Location: ?ern� Novina
(50.6762°N, 14.8696°E)
Time: 13:54:14
(UTC+00:00)

Gbstr 26 Del rocket - Pass Details

Date: 03 March 2021
Orbit: 492 x 1264 km, 51.8° (Epoch: 10 April)

Event Time Altitude Azimuth Distance (km) Brightness Sun altitude
Rises 18:08:36 0° 266° (W) 2,789 8.2 -13.9°
Reaches altitude 10° 18:10:40 10° 268° (W) 1,970 7.0 -14.3°
Maximum altitude 18:15:10 79° 355° (N) 719 3.3 -15.0°
Enters shadow 18:18:35 23° 81° (E) 1,611 4.6 -15.5°
